This is the latest recevied weather packets stored in our database for station/object N7WSS. If no packets are shown the sender has not sent any weather packets the latest 10 day(s).
| Time | Temp. | Humidity | Pressure | Rain* | Wind** | Luminosity | Snow |
|---|---|---|---|---|---|---|---|
| 1787605092 | 37.78° C | 27% | 1014.3 hPa | 0 mm | - | - | - |
| 1787604791 | 37.78° C | 27% | 1014.4 hPa | 0 mm | - | - | - |
| 1787604487 | 38.33° C | 27% | 1014.4 hPa | 0 mm | - | - | - |
| 1787604187 | 38.33° C | 26% | 1014.5 hPa | 0 mm | - | - | - |
| 1787603882 | 37.78° C | 28% | 1014.3 hPa | 0 mm | - | - | - |
| 1787603581 | 37.22° C | 28% | 1014.5 hPa | 0 mm | - | - | - |
| 1787603277 | 37.78° C | 28% | 1014.5 hPa | 0 mm | - | - | - |
| 1787602973 | 37.22° C | 28% | 1014.5 hPa | 0 mm | - | - | - |
| 1787602668 | 38.33° C | 27% | 1014.7 hPa | 0 mm | - | - | - |
| 1787602363 | 37.78° C | 28% | 1014.5 hPa | 0 mm | - | - | - |
| 1787602058 | 37.78° C | 28% | 1014.5 hPa | 0 mm | - | - | - |
| 1787601757 | 38.33° C | 27% | 1014.5 hPa | 0 mm | - | - | - |
| 1787601452 | 37.78° C | 28% | 1014.7 hPa | 0 mm | - | - | - |
| 1787601152 | 37.78° C | 28% | 1014.8 hPa | 0 mm | - | - | - |
| 1787600851 | 37.78° C | 29% | 1015 hPa | 0 mm | - | - | - |
| 1787600547 | 37.78° C | 28% | 1015 hPa | 0 mm | - | - | - |
| 1787600243 | 37.22° C | 29% | 1015.1 hPa | 0 mm | - | - | - |
| 1787599939 | 37.22° C | 30% | 1015.1 hPa | 0 mm | - | - | - |
| 1787599635 | 37.22° C | 30% | 1015.1 hPa | 0 mm | - | - | - |
| 1787599332 | 36.67° C | 30% | 1015.2 hPa | 0 mm | - | - | - |
| 1787599027 | 36.67° C | 30% | 1015.4 hPa | 0 mm | - | - | - |
| 1787598417 | - | - | - | 0 mm | - | - | - |
| 1787598113 | - | - | - | 0 mm | - | - | - |
| 1787597808 | - | - | - | 0 mm | - | - | - |
| 1787597508 | - | - | - | 0 mm | - | - | - |
* Rain latest hour (hover to see other rain measurements)
** Current wind speed in m/s (hover to see current wind gust speed)